When you browse on this site, cookies collect data to enhance your experience and personalize the content and advertising you see.
Visit our Privacy Policy to learn more. By continuing to use the site, you agree to this use of cookies and data.
  • In Deutschland
  • Länderverzeichnis
  • Für 7 Tage
  • Wassertemperatur
  • Wetterkarte
  • Widgets
  • user-avatar
    Anmelden

    Stündliche Wetter Klagenfurt

    Heute, 22 August, Donnerstag

    Zeit Temperatur Niederschläge Wind Luftdruck Luftfeuchtigkeit
    00:00 +15°C° 0.2 mm 1 m/S 696 mmHg 96%
    01:00 +14°C° 0.2 mm 1 m/S 696 mmHg 96%
    02:00 +14°C° 0.2 mm 1 m/S 695 mmHg 97%
    03:00 +14°C° 0.2 mm 1 m/S 695 mmHg 97%
    04:00 +13°C° 0.2 mm 1 m/S 695 mmHg 97%
    05:00 +14°C° 0 mm 1 m/S 695 mmHg 96%
    06:00 +14°C° 0 mm 1 m/S 695 mmHg 95%
    07:00 +14°C° 0 mm 0 m/S 695 mmHg 94%
    08:00 +18°C° 0 mm 1 m/S 695 mmHg 86%
    09:00 +20°C° 0 mm 1 m/S 696 mmHg 77%
    10:00 +21°C° 0 mm 1 m/S 696 mmHg 69%
    11:00 +22°C° 0 mm 1 m/S 696 mmHg 66%
    12:00 +23°C° 0 mm 1 m/S 696 mmHg 62%
    13:00 +25°C° 0 mm 1 m/S 696 mmHg 59%
    14:00 +24°C° 0.1 mm 1 m/S 696 mmHg 61%
    15:00 +24°C° 0.1 mm 1 m/S 695 mmHg 62%
    16:00 +24°C° 0.1 mm 1 m/S 695 mmHg 64%
    17:00 +22°C° 0.3 mm 1 m/S 695 mmHg 73%
    18:00 +21°C° 0.3 mm 1 m/S 695 mmHg 82%
    19:00 +19°C° 0.3 mm 1 m/S 695 mmHg 90%
    20:00 +18°C° 0.3 mm 1 m/S 695 mmHg 92%
    21:00 +18°C° 0.3 mm 1 m/S 695 mmHg 93%
    22:00 +16°C° 0.3 mm 0 m/S 695 mmHg 95%
    23:00 +15°C° 0 mm 0 m/S 695 mmHg 95%

    Morgen, 23 August, Freitag

    Zeit Temperatur Niederschläge Wind Luftdruck Luftfeuchtigkeit
    00:00 +16°C° 0 mm 1 m/S 695 mmHg 95%
    01:00 +16°C° 0 mm 1 m/S 695 mmHg 95%
    02:00 +16°C° 0 mm 1 m/S 695 mmHg 96%
    03:00 +16°C° 0 mm 1 m/S 695 mmHg 96%
    04:00 +16°C° 0 mm 1 m/S 695 mmHg 96%
    05:00 +16°C° 0.1 mm 1 m/S 695 mmHg 95%
    06:00 +18°C° 0.1 mm 1 m/S 695 mmHg 94%
    07:00 +18°C° 0.1 mm 1 m/S 695 mmHg 93%
    08:00 +19°C° 0 mm 1 m/S 695 mmHg 89%
    09:00 +21°C° 0 mm 1 m/S 696 mmHg 85%
    10:00 +22°C° 0 mm 1 m/S 696 mmHg 81%
    11:00 +23°C° 0.1 mm 1 m/S 696 mmHg 77%
    12:00 +23°C° 0.1 mm 1 m/S 696 mmHg 74%
    13:00 +24°C° 0.1 mm 1 m/S 696 mmHg 71%
    14:00 +24°C° 0.5 mm 1 m/S 695 mmHg 72%
    15:00 +24°C° 0.5 mm 1 m/S 695 mmHg 73%
    16:00 +24°C° 0.5 mm 1 m/S 695 mmHg 74%
    17:00 +23°C° 0.6 mm 1 m/S 694 mmHg 81%
    18:00 +21°C° 0.6 mm 1 m/S 694 mmHg 87%
    19:00 +20°C° 0.6 mm 1 m/S 694 mmHg 94%
    20:00 +19°C° 0.7 mm 1 m/S 694 mmHg 94%
    21:00 +19°C° 0.7 mm 1 m/S 694 mmHg 94%
    22:00 +18°C° 0.7 mm 1 m/S 694 mmHg 94%
    23:00 +18°C° 0.6 mm 1 m/S 694 mmHg 94%

    übermorgen, 24 August, Samstag

    Zeit Temperatur Niederschläge Wind Luftdruck Luftfeuchtigkeit
    00:00 +18°C° 0.6 mm 1 m/S 694 mmHg 94%
    01:00 +15°C° 0.6 mm 0 m/S 693 mmHg 94%
    02:00 +15°C° 0.2 mm 0 m/S 693 mmHg 94%
    03:00 +15°C° 0.2 mm 0 m/S 693 mmHg 95%
    04:00 +15°C° 0.2 mm 0 m/S 693 mmHg 95%
    05:00 +18°C° 0.2 mm 1 m/S 693 mmHg 95%
    06:00 +18°C° 0.2 mm 1 m/S 693 mmHg 94%
    07:00 +19°C° 0.2 mm 1 m/S 693 mmHg 94%
    08:00 +20°C° 0.2 mm 1 m/S 694 mmHg 88%
    09:00 +22°C° 0.2 mm 1 m/S 694 mmHg 82%
    10:00 +24°C° 0.2 mm 1 m/S 694 mmHg 76%
    11:00 +24°C° 0.8 mm 1 m/S 694 mmHg 74%
    12:00 +25°C° 0.8 mm 1 m/S 694 mmHg 72%
    13:00 +26°C° 0.8 mm 1 m/S 694 mmHg 69%
    14:00 +25°C° 0.8 mm 1 m/S 693 mmHg 71%
    15:00 +25°C° 0.8 mm 1 m/S 693 mmHg 72%
    16:00 +25°C° 0.8 mm 1 m/S 693 mmHg 73%
    17:00 +23°C° 0.8 mm 1 m/S 692 mmHg 78%
    18:00 +21°C° 0.8 mm 1 m/S 692 mmHg 83%
    19:00 +20°C° 0.8 mm 1 m/S 692 mmHg 88%
    20:00 +19°C° 0.3 mm 1 m/S 692 mmHg 87%
    21:00 +18°C° 0.3 mm 1 m/S 692 mmHg 87%
    22:00 +18°C° 0.3 mm 1 m/S 692 mmHg 86%
    23:00 +18°C° 0 mm 1 m/S 692 mmHg 87%

    25 August, Sonntag

    Zeit Temperatur Niederschläge Wind Luftdruck Luftfeuchtigkeit
    00:00 +16°C° 0 mm 1 m/S 692 mmHg 88%
    01:00 +16°C° 0 mm 1 m/S 692 mmHg 88%
    02:00 +16°C° 0 mm 1 m/S 692 mmHg 88%
    03:00 +16°C° 0 mm 1 m/S 691 mmHg 89%
    04:00 +15°C° 0 mm 1 m/S 691 mmHg 89%
    05:00 +16°C° 0 mm 1 m/S 692 mmHg 88%
    06:00 +18°C° 0 mm 1 m/S 692 mmHg 88%
    07:00 +17°C° 0 mm 0 m/S 692 mmHg 87%
    08:00 +21°C° 0.1 mm 1 m/S 692 mmHg 79%
    09:00 +23°C° 0.1 mm 1 m/S 693 mmHg 70%
    10:00 +25°C° 0.1 mm 1 m/S 693 mmHg 62%
    11:00 +26°C° 0.9 mm 1 m/S 693 mmHg 62%
    12:00 +26°C° 0.9 mm 1 m/S 693 mmHg 61%
    13:00 +27°C° 0.9 mm 1 m/S 693 mmHg 61%
    14:00 +26°C° 0.5 mm 1 m/S 693 mmHg 61%
    15:00 +26°C° 0.5 mm 1 m/S 693 mmHg 62%
    16:00 +26°C° 0.5 mm 1 m/S 692 mmHg 63%
    17:00 +24°C° 0.4 mm 1 m/S 692 mmHg 70%
    18:00 +22°C° 0.4 mm 1 m/S 692 mmHg 77%
    19:00 +18°C° 0.4 mm 0 m/S 691 mmHg 84%
    20:00 +18°C° 0.7 mm 0 m/S 692 mmHg 85%
    21:00 +19°C° 0.7 mm 1 m/S 692 mmHg 86%
    22:00 +18°C° 0.7 mm 1 m/S 692 mmHg 87%
    23:00 +18°C° 0 mm 1 m/S 692 mmHg 88%

    26 August, Montag

    Zeit Temperatur Niederschläge Wind Luftdruck Luftfeuchtigkeit
    00:00 +18°C° 0 mm 1 m/S 692 mmHg 89%
    01:00 +16°C° 0 mm 1 m/S 692 mmHg 89%
    02:00 +16°C° 0 mm 1 m/S 692 mmHg 90%
    03:00 +16°C° 0 mm 1 m/S 692 mmHg 90%
    04:00 +16°C° 0 mm 1 m/S 691 mmHg 91%
    05:00 +16°C° 0 mm 1 m/S 692 mmHg 90%
    06:00 +18°C° 0 mm 1 m/S 692 mmHg 88%
    07:00 +19°C° 0 mm 1 m/S 693 mmHg 87%
    08:00 +21°C° 0.1 mm 1 m/S 693 mmHg 78%
    09:00 +24°C° 0.1 mm 1 m/S 694 mmHg 70%
    10:00 +26°C° 0.1 mm 1 m/S 694 mmHg 61%
    11:00 +27°C° 0.4 mm 1 m/S 694 mmHg 58%
    12:00 +27°C° 0.4 mm 1 m/S 694 mmHg 56%
    13:00 +28°C° 0.4 mm 1 m/S 694 mmHg 53%
    14:00 +27°C° 0.6 mm 1 m/S 694 mmHg 57%
    15:00 +27°C° 0.6 mm 1 m/S 694 mmHg 60%
    16:00 +26°C° 0.6 mm 1 m/S 694 mmHg 64%
    17:00 +24°C° 1 mm 1 m/S 694 mmHg 71%
    18:00 +22°C° 1 mm 1 m/S 693 mmHg 78%
    19:00 +18°C° 1 mm 0 m/S 693 mmHg 85%
    20:00 +20°C° 0.4 mm 1 m/S 693 mmHg 86%
    21:00 +19°C° 0.4 mm 1 m/S 693 mmHg 88%
    22:00 +18°C° 0.4 mm 1 m/S 694 mmHg 89%
    23:00 +18°C° 0 mm 1 m/S 694 mmHg 89%

    27 August, Dienstag

    Zeit Temperatur Niederschläge Wind Luftdruck Luftfeuchtigkeit
    00:00 +18°C° 0 mm 1 m/S 693 mmHg 90%
    01:00 +16°C° 0 mm 1 m/S 693 mmHg 91%
    02:00 +16°C° 0 mm 1 m/S 693 mmHg 91%
    03:00 +16°C° 0 mm 1 m/S 693 mmHg 91%
    04:00 +16°C° 0 mm 1 m/S 693 mmHg 92%
    05:00 +18°C° 0 mm 1 m/S 693 mmHg 90%
    06:00 +18°C° 0 mm 1 m/S 693 mmHg 89%
    07:00 +19°C° 0 mm 1 m/S 693 mmHg 88%
    08:00 +21°C° 0.2 mm 1 m/S 694 mmHg 81%
    09:00 +23°C° 0.2 mm 1 m/S 694 mmHg 74%
    10:00 +25°C° 0.2 mm 1 m/S 695 mmHg 67%
    11:00 +26°C° 0.3 mm 1 m/S 695 mmHg 62%
    12:00 +27°C° 0.3 mm 1 m/S 695 mmHg 57%
    13:00 +28°C° 0.3 mm 1 m/S 695 mmHg 52%
    14:00 +28°C° 0.2 mm 1 m/S 694 mmHg 53%
    15:00 +28°C° 0.2 mm 1 m/S 694 mmHg 54%
    16:00 +27°C° 0.2 mm 1 m/S 694 mmHg 55%
    17:00 +25°C° 0.8 mm 1 m/S 693 mmHg 64%
    18:00 +23°C° 0.8 mm 1 m/S 693 mmHg 74%
    19:00 +20°C° 0.8 mm 1 m/S 692 mmHg 83%
    20:00 +20°C° 0.2 mm 1 m/S 692 mmHg 84%
    21:00 +19°C° 0.2 mm 1 m/S 692 mmHg 84%
    22:00 +19°C° 0.2 mm 1 m/S 693 mmHg 85%
    23:00 +18°C° 0 mm 1 m/S 692 mmHg 86%
    Mehr zeigen